SAS2494 EKCH-ENEV

Flight info

Callsign SAS2494
Flight time 2h 5m
Altitude 38000
Route VEDAR L997 LASLI DCT LILBA/N0443F390 Z320 GIGNI Z125 SOMUB DCT PENNO
Aircraft A20N/M-SDE2E3FGHIRWXY/LB1

Departure

Time 2026-04-22 19:43
Airport Copenhagen Kastrup Airport (EKCH)

Arrival

Time 2026-04-22 21:49
Airport Harstad/Narvik Airport (ENEV)
Time Latitude Longitude Altitude Speed Heading
2026-04-22 19:16 55.62564 12.64509 24 ft 0 kts 16°
2026-04-22 19:29 55.62560 12.64507 24 ft 2 kts 17°
2026-04-22 19:29 55.62544 12.64498 25 ft 2 kts 21°
2026-04-22 19:30 55.62534 12.64490 26 ft 2 kts 28°
2026-04-22 19:30 55.62516 12.64468 26 ft 2 kts 63°
2026-04-22 19:30 55.62513 12.64440 26 ft 2 kts 117°
2026-04-22 19:30 55.62517 12.64428 25 ft 0 kts 123°
2026-04-22 19:32 55.62488 12.64480 26 ft 7 kts 152°
2026-04-22 19:32 55.62431 12.64466 24 ft 11 kts 198°
2026-04-22 19:32 55.62357 12.64431 24 ft 13 kts 193°
2026-04-22 19:33 55.62272 12.64394 22 ft 13 kts 189°
2026-04-22 19:33 55.62163 12.64420 24 ft 17 kts 169°
2026-04-22 19:33 55.62057 12.64455 24 ft 15 kts 170°
2026-04-22 19:33 55.61938 12.64494 24 ft 24 kts 169°
2026-04-22 19:34 55.61767 12.64552 26 ft 26 kts 169°
2026-04-22 19:34 55.61680 12.64560 24 ft 12 kts 197°
2026-04-22 19:34 55.61573 12.64444 25 ft 20 kts 212°
2026-04-22 19:34 55.61451 12.64304 26 ft 22 kts 213°
2026-04-22 19:35 55.61327 12.64162 24 ft 18 kts 212°
2026-04-22 19:35 55.61249 12.64104 24 ft 11 kts 178°
2026-04-22 19:35 55.61218 12.64123 24 ft 0 kts 155°
2026-04-22 19:35 55.61217 12.64124 24 ft 2 kts 159°
2026-04-22 19:36 55.61210 12.64141 24 ft 0 kts 78°
2026-04-22 19:36 55.61218 12.64139 24 ft 3 kts 354°
2026-04-22 19:36 55.61240 12.64065 24 ft 5 kts 219°
2026-04-22 19:36 55.61161 12.63971 24 ft 23 kts 213°
2026-04-22 19:37 55.61017 12.63803 24 ft 26 kts 213°
2026-04-22 19:37 55.60859 12.63624 24 ft 23 kts 213°
2026-04-22 19:37 55.60763 12.63646 24 ft 15 kts 130°
2026-04-22 19:37 55.60734 12.63705 25 ft 0 kts 131°
2026-04-22 19:42 55.60707 12.63763 24 ft 9 kts 127°
2026-04-22 19:42 55.60693 12.63857 25 ft 7 kts 83°
2026-04-22 19:42 55.60715 12.63927 31 ft 7 kts 48°
2026-04-22 19:42 55.60863 12.64155 27 ft 69 kts 40°
2026-04-22 19:43 55.62387 12.66501 368 ft 195 kts 38°
2026-04-22 19:43 55.63469 12.68174 1181 ft 219 kts 36°
2026-04-22 19:43 55.64690 12.70043 2063 ft 241 kts 33°
2026-04-22 19:44 55.66168 12.71418 3216 ft 241 kts 10°
2026-04-22 19:44 55.67822 12.71546 4538 ft 239 kts 347°
2026-04-22 19:44 55.69414 12.70654 5589 ft 241 kts 339°
2026-04-22 19:44 55.70996 12.69593 6554 ft 245 kts 339°
2026-04-22 19:45 55.72597 12.68486 7443 ft 249 kts 339°
2026-04-22 19:45 55.74220 12.67359 8334 ft 252 kts 339°
2026-04-22 19:45 55.75867 12.66217 9242 ft 256 kts 339°
2026-04-22 19:45 55.77540 12.65061 10140 ft 260 kts 339°
2026-04-22 19:46 55.79275 12.63871 10724 ft 279 kts 340°
2026-04-22 19:46 55.81179 12.62572 11327 ft 306 kts 340°
2026-04-22 19:46 55.83234 12.61167 12008 ft 324 kts 340°
2026-04-22 19:46 55.85368 12.59704 12926 ft 333 kts 340°
2026-04-22 19:47 55.87556 12.58206 13928 ft 341 kts 340°
2026-04-22 19:47 55.89795 12.56670 14866 ft 348 kts 340°
2026-04-22 19:47 55.91306 12.55634 15499 ft 352 kts 340°
2026-04-22 19:47 55.94383 12.53523 16603 ft 359 kts 340°
2026-04-22 19:48 55.96723 12.51916 17229 ft 363 kts 340°
2026-04-22 19:48 55.99096 12.50280 17863 ft 367 kts 340°
2026-04-22 19:48 56.01491 12.48621 18489 ft 371 kts 340°
2026-04-22 19:48 56.03906 12.46947 19005 ft 374 kts 340°
2026-04-22 19:49 56.06349 12.45253 19515 ft 378 kts 341°
2026-04-22 19:49 56.08811 12.43543 20028 ft 382 kts 341°
2026-04-22 19:49 56.11300 12.41814 20534 ft 386 kts 341°
2026-04-22 19:49 56.13815 12.40069 21038 ft 389 kts 341°
2026-04-22 19:50 56.16353 12.38305 21519 ft 393 kts 341°
2026-04-22 19:50 56.18882 12.36543 21997 ft 397 kts 341°
2026-04-22 19:50 56.21466 12.34737 22476 ft 400 kts 341°
2026-04-22 19:50 56.24072 12.32912 22951 ft 404 kts 342°
2026-04-22 19:51 56.26698 12.31069 23408 ft 408 kts 342°
2026-04-22 19:51 56.29352 12.29207 23851 ft 411 kts 342°
2026-04-22 19:51 56.32033 12.27323 24238 ft 414 kts 342°
2026-04-22 19:51 56.34727 12.25429 24645 ft 417 kts 342°
2026-04-22 19:52 56.37434 12.23525 25036 ft 419 kts 342°
2026-04-22 19:52 56.40162 12.21601 25425 ft 421 kts 342°
2026-04-22 19:52 56.42898 12.19667 25810 ft 423 kts 342°
2026-04-22 19:52 56.45647 12.17717 26189 ft 426 kts 342°
2026-04-22 19:53 56.48407 12.15758 26564 ft 428 kts 342°
2026-04-22 19:53 56.51192 12.13783 26940 ft 430 kts 342°
2026-04-22 19:53 56.53071 12.12636 27187 ft 429 kts 348°
2026-04-22 19:53 56.56980 12.11280 27655 ft 429 kts 354°
2026-04-22 19:54 56.59942 12.10451 28016 ft 431 kts 354°
2026-04-22 19:54 56.62907 12.09625 28364 ft 433 kts 354°
2026-04-22 19:54 56.65895 12.08792 28699 ft 435 kts 354°
2026-04-22 19:54 56.68891 12.07955 29028 ft 437 kts 354°
2026-04-22 19:55 56.71902 12.07111 29353 ft 439 kts 354°
2026-04-22 19:55 56.74939 12.06256 29671 ft 441 kts 354°
2026-04-22 19:55 56.77975 12.05397 29985 ft 443 kts 354°
2026-04-22 19:55 56.81028 12.04534 30332 ft 444 kts 354°
2026-04-22 19:56 56.84036 12.03681 30705 ft 443 kts 354°
2026-04-22 19:56 56.87074 12.02819 31082 ft 442 kts 355°
2026-04-22 19:56 56.90154 12.01939 31453 ft 441 kts 355°
2026-04-22 19:56 56.92166 12.01375 31690 ft 440 kts 356°
2026-04-22 19:57 56.96181 12.00942 32162 ft 436 kts
2026-04-22 19:57 56.99211 12.00755 32528 ft 435 kts
2026-04-22 19:57 57.02246 12.00573 32887 ft 435 kts
2026-04-22 19:57 57.05261 12.00398 33246 ft 434 kts
2026-04-22 19:58 57.07304 12.00281 33485 ft 434 kts
2026-04-22 19:58 57.10319 12.00104 33837 ft 433 kts
2026-04-22 19:58 57.13324 11.99922 34195 ft 433 kts
2026-04-22 19:58 57.16334 11.99734 34510 ft 432 kts
2026-04-22 19:59 57.19343 11.99543 34820 ft 432 kts
2026-04-22 20:00 57.37241 11.98429 36528 ft 429 kts
2026-04-22 20:00 57.40217 11.98235 36780 ft 428 kts
2026-04-22 20:01 57.43231 11.98041 37031 ft 428 kts
2026-04-22 20:01 57.46165 11.97859 37270 ft 427 kts
2026-04-22 20:01 57.49137 11.97676 37508 ft 427 kts
2026-04-22 20:01 57.52102 11.97493 37746 ft 427 kts
2026-04-22 20:02 57.55071 11.97309 37984 ft 426 kts
2026-04-22 20:02 57.58033 11.97123 38173 ft 427 kts
2026-04-22 20:02 57.61007 11.96936 38233 ft 427 kts
2026-04-22 20:03 57.66949 11.96558 38221 ft 427 kts
2026-04-22 20:03 57.72887 11.96183 38220 ft 427 kts
2026-04-22 20:04 57.78829 11.95806 38216 ft 427 kts
2026-04-22 20:04 57.84766 11.95430 38217 ft 427 kts
2026-04-22 20:05 57.90703 11.95039 38233 ft 427 kts
2026-04-22 20:05 57.96639 11.94657 38231 ft 427 kts
2026-04-22 20:06 58.02587 11.94281 38237 ft 427 kts
2026-04-22 20:06 58.08532 11.93903 38241 ft 428 kts
2026-04-22 20:07 58.14481 11.93516 38239 ft 428 kts
2026-04-22 20:07 58.20440 11.93126 38238 ft 428 kts
2026-04-22 20:08 58.26384 11.92725 38240 ft 428 kts
2026-04-22 20:08 58.32339 11.92323 38241 ft 428 kts
2026-04-22 20:09 58.38288 11.91928 38244 ft 428 kts
2026-04-22 20:09 58.44235 11.91542 38245 ft 428 kts
2026-04-22 20:10 58.50183 11.91155 38248 ft 428 kts
2026-04-22 20:10 58.56128 11.90769 38254 ft 428 kts
2026-04-22 20:11 58.62045 11.90372 38260 ft 427 kts
2026-04-22 20:11 58.67984 11.89964 38259 ft 427 kts
2026-04-22 20:12 58.73923 11.89554 38262 ft 427 kts
2026-04-22 20:12 58.79864 11.89163 38268 ft 427 kts
2026-04-22 20:13 58.85793 11.88759 38270 ft 426 kts
2026-04-22 20:13 58.91721 11.88352 38276 ft 426 kts
2026-04-22 20:14 58.97628 11.87950 38281 ft 424 kts
2026-04-22 20:14 59.03533 11.87555 38273 ft 423 kts
2026-04-22 20:15 59.09408 11.87147 38273 ft 422 kts
2026-04-22 20:15 59.15273 11.86745 38275 ft 421 kts
2026-04-22 20:16 59.21117 11.86340 38270 ft 420 kts
2026-04-22 20:16 59.26957 11.85932 38268 ft 419 kts
2026-04-22 20:17 59.32780 11.85526 38265 ft 419 kts
2026-04-22 20:17 59.38606 11.85113 38263 ft 418 kts
2026-04-22 20:18 59.44418 11.84710 38262 ft 418 kts
2026-04-22 20:18 59.50185 11.84312 38262 ft 417 kts
2026-04-22 20:19 59.56021 11.83903 38257 ft 417 kts
2026-04-22 20:19 59.61782 11.83474 38256 ft 417 kts
2026-04-22 20:20 59.67576 11.83054 38256 ft 416 kts
2026-04-22 20:20 59.73361 11.82648 38258 ft 416 kts
2026-04-22 20:21 59.79132 11.82247 38260 ft 415 kts
2026-04-22 20:21 59.84908 11.81839 38255 ft 415 kts
2026-04-22 20:22 59.90680 11.81424 38250 ft 415 kts
2026-04-22 20:22 59.96453 11.81007 38244 ft 415 kts
2026-04-22 20:23 60.02232 11.80591 38249 ft 416 kts
2026-04-22 20:23 60.08018 11.80170 38242 ft 416 kts
2026-04-22 20:24 60.13816 11.79736 38243 ft 417 kts
2026-04-22 20:24 60.19623 11.79310 38262 ft 417 kts
2026-04-22 20:25 60.25431 11.78891 38247 ft 418 kts
2026-04-22 20:25 60.31247 11.78456 38257 ft 418 kts
2026-04-22 20:26 60.37061 11.78018 38249 ft 419 kts
2026-04-22 20:26 60.42886 11.77592 38253 ft 419 kts
2026-04-22 20:27 60.48713 11.77164 38257 ft 419 kts
2026-04-22 20:27 60.54553 11.76718 38262 ft 420 kts
2026-04-22 20:28 60.60384 11.76278 38272 ft 420 kts 360°
2026-04-22 20:28 60.66220 11.75840 38270 ft 420 kts 360°
2026-04-22 20:29 60.72058 11.75399 38275 ft 420 kts 359°
2026-04-22 20:29 60.77889 11.74957 38282 ft 419 kts 359°
2026-04-22 20:30 60.83719 11.74465 38282 ft 419 kts 358°
2026-04-22 20:30 60.89534 11.73376 38283 ft 420 kts 355°
2026-04-22 20:31 60.95327 11.71954 38289 ft 419 kts 354°
2026-04-22 20:31 61.01117 11.70589 38290 ft 419 kts 355°
2026-04-22 20:32 61.06910 11.69327 38287 ft 418 kts 355°
2026-04-22 20:32 61.12658 11.68108 38289 ft 418 kts 355°
2026-04-22 20:33 61.18439 11.66865 38292 ft 417 kts 355°
2026-04-22 20:33 61.24210 11.65600 38292 ft 417 kts 355°
2026-04-22 20:34 61.29983 11.64317 38289 ft 417 kts 354°
2026-04-22 20:34 61.35760 11.63037 38293 ft 417 kts 354°
2026-04-22 20:35 61.41534 11.61757 38293 ft 417 kts 354°
2026-04-22 20:35 61.47305 11.60472 38293 ft 417 kts 354°
2026-04-22 20:36 61.53085 11.59178 38296 ft 417 kts 354°
2026-04-22 20:36 61.58858 11.57894 38299 ft 418 kts 354°
2026-04-22 20:37 61.64638 11.56605 38302 ft 418 kts 354°
2026-04-22 20:37 61.70423 11.55303 38302 ft 418 kts 354°
2026-04-22 20:38 61.76207 11.53982 38302 ft 418 kts 354°
2026-04-22 20:38 61.82002 11.52658 38298 ft 419 kts 354°
2026-04-22 20:39 61.87797 11.51345 38303 ft 419 kts 354°
2026-04-22 20:39 61.93598 11.50012 38306 ft 419 kts 353°
2026-04-22 20:40 61.99406 11.48763 38310 ft 419 kts 358°
2026-04-22 20:40 62.04238 11.49497 38317 ft 420 kts
2026-04-22 20:41 62.11024 11.51072 38323 ft 419 kts
2026-04-22 20:41 62.15846 11.52160 38321 ft 419 kts
2026-04-22 20:42 62.21648 11.53465 38324 ft 419 kts
2026-04-22 20:42 62.27442 11.54797 38328 ft 419 kts
2026-04-22 20:43 62.33228 11.56149 38330 ft 418 kts
2026-04-22 20:43 62.39017 11.57489 38327 ft 418 kts
2026-04-22 20:44 62.44805 11.58820 38332 ft 418 kts
2026-04-22 20:44 62.50599 11.60171 38336 ft 418 kts
2026-04-22 20:45 62.56372 11.61538 38340 ft 417 kts
2026-04-22 20:45 62.62144 11.62905 38341 ft 416 kts
2026-04-22 20:46 62.70773 11.64945 38344 ft 415 kts
2026-04-22 20:46 62.76508 11.66308 38345 ft 414 kts
2026-04-22 20:47 62.82231 11.67664 38346 ft 413 kts
2026-04-22 20:47 62.87946 11.69030 38342 ft 413 kts
2026-04-22 20:48 62.93659 11.70399 38338 ft 413 kts
2026-04-22 20:48 62.99373 11.71778 38333 ft 413 kts
2026-04-22 20:49 63.05085 11.73172 38332 ft 413 kts
2026-04-22 20:49 63.10802 11.74578 38332 ft 413 kts
2026-04-22 20:50 63.16519 11.75973 38336 ft 413 kts
2026-04-22 20:50 63.22240 11.77368 38340 ft 413 kts
2026-04-22 20:51 63.27961 11.78775 38335 ft 413 kts
2026-04-22 20:51 63.33668 11.80223 38333 ft 413 kts
2026-04-22 20:52 63.39194 11.83836 38333 ft 415 kts 17°
2026-04-22 20:52 63.44654 11.88100 38336 ft 415 kts 17°
2026-04-22 20:53 63.50101 11.92344 38327 ft 415 kts 17°
2026-04-22 20:53 63.55545 11.96605 38318 ft 414 kts 17°
2026-04-22 20:54 63.60981 12.00898 38318 ft 414 kts 16°
2026-04-22 20:54 63.66405 12.05198 38313 ft 413 kts 16°
2026-04-22 20:55 63.71817 12.09511 38309 ft 412 kts 16°
2026-04-22 20:55 63.77223 12.13833 38331 ft 411 kts 16°
2026-04-22 20:56 63.82620 12.18164 38371 ft 410 kts 16°
2026-04-22 20:56 63.87994 12.22484 38416 ft 410 kts 16°
2026-04-22 20:57 63.93330 12.26792 38445 ft 410 kts 16°
2026-04-22 20:57 63.98696 12.31148 38476 ft 409 kts 16°
2026-04-22 20:58 64.04045 12.35513 38490 ft 408 kts 15°
2026-04-22 20:58 64.09392 12.39890 38492 ft 408 kts 15°
2026-04-22 20:59 64.14727 12.44265 38467 ft 407 kts 15°
2026-04-22 20:59 64.20056 12.48666 38430 ft 407 kts 15°
2026-04-22 21:00 64.25379 12.53072 38385 ft 406 kts 15°
2026-04-22 21:00 64.30694 12.57493 38332 ft 406 kts 15°
2026-04-22 21:01 64.36001 12.61928 38276 ft 405 kts 15°
2026-04-22 21:01 64.41299 12.66376 38262 ft 405 kts 15°
2026-04-22 21:02 64.46600 12.70856 38260 ft 404 kts 15°
2026-04-22 21:02 64.51887 12.75329 38255 ft 404 kts 15°
2026-04-22 21:03 64.57166 12.79813 38251 ft 403 kts 15°
2026-04-22 21:03 64.62432 12.84290 38253 ft 403 kts 15°
2026-04-22 21:04 64.67662 12.88767 38243 ft 402 kts 15°
2026-04-22 21:04 64.72942 12.93298 38243 ft 401 kts 15°
2026-04-22 21:05 64.78146 12.97794 38249 ft 401 kts 15°
2026-04-22 21:05 64.83367 13.02340 38244 ft 400 kts 15°
2026-04-22 21:06 64.88585 13.06882 38237 ft 400 kts 15°
2026-04-22 21:06 64.93802 13.11430 38236 ft 399 kts 14°
2026-04-22 21:07 64.99004 13.15995 38230 ft 398 kts 15°
2026-04-22 21:07 65.04197 13.20586 38226 ft 398 kts 14°
2026-04-22 21:08 65.09376 13.25176 38227 ft 397 kts 14°
2026-04-22 21:08 65.14558 13.29772 38223 ft 397 kts 14°
2026-04-22 21:09 65.19725 13.34384 38220 ft 396 kts 14°
2026-04-22 21:09 65.24852 13.38982 38221 ft 396 kts 14°
2026-04-22 21:10 65.30010 13.43620 38216 ft 396 kts 14°
2026-04-22 21:10 65.35163 13.48272 38218 ft 395 kts 14°
2026-04-22 21:11 65.40305 13.52939 38212 ft 395 kts 14°
2026-04-22 21:11 65.45446 13.57640 38208 ft 395 kts 14°
2026-04-22 21:12 65.50581 13.62333 38214 ft 395 kts 14°
2026-04-22 21:12 65.55713 13.67041 38217 ft 394 kts 14°
2026-04-22 21:13 65.60841 13.71768 38219 ft 394 kts 15°
2026-04-22 21:13 65.65961 13.76523 38222 ft 394 kts 15°
2026-04-22 21:14 65.71079 13.81293 38221 ft 394 kts 15°
2026-04-22 21:14 65.76189 13.86067 38220 ft 393 kts 15°
2026-04-22 21:15 65.81303 13.90863 38218 ft 393 kts 15°
2026-04-22 21:15 65.86412 13.95677 38215 ft 393 kts 15°
2026-04-22 21:16 65.91477 14.00497 38210 ft 394 kts 15°
2026-04-22 21:16 65.96584 14.05365 38209 ft 394 kts 15°
2026-04-22 21:17 66.01693 14.10231 38210 ft 394 kts 15°
2026-04-22 21:17 66.06801 14.15129 38207 ft 394 kts 15°
2026-04-22 21:18 66.11905 14.20033 38209 ft 394 kts 15°
2026-04-22 21:18 66.17004 14.24969 38207 ft 394 kts 15°
2026-04-22 21:19 66.22105 14.29934 38208 ft 393 kts 15°
2026-04-22 21:19 66.27197 14.34898 38213 ft 393 kts 15°
2026-04-22 21:20 66.32287 14.39882 38208 ft 393 kts 15°
2026-04-22 21:20 66.37379 14.44881 38210 ft 393 kts 15°
2026-04-22 21:21 66.42468 14.49905 38206 ft 393 kts 15°
2026-04-22 21:21 66.47550 14.54963 38213 ft 393 kts 15°
2026-04-22 21:22 66.52635 14.60045 38211 ft 394 kts 15°
2026-04-22 21:22 66.57720 14.65146 38213 ft 394 kts 15°
2026-04-22 21:23 66.62775 14.70255 38205 ft 394 kts 15°
2026-04-22 21:23 66.67869 14.75411 38209 ft 395 kts 15°
2026-04-22 21:24 66.72968 14.80595 38212 ft 395 kts 16°
2026-04-22 21:24 66.78067 14.85791 38210 ft 395 kts 15°
2026-04-22 21:25 66.83178 14.90997 38211 ft 396 kts 15°
2026-04-22 21:25 66.88284 14.96248 38108 ft 396 kts 16°
2026-04-22 21:26 66.90006 14.98031 37447 ft 395 kts 15°
2026-04-22 21:26 66.92522 15.00649 36758 ft 385 kts 15°
2026-04-22 21:26 66.94966 15.03201 36081 ft 374 kts 14°
2026-04-22 21:26 66.97350 15.05690 35364 ft 366 kts 14°
2026-04-22 21:27 66.99683 15.08123 34683 ft 360 kts 13°
2026-04-22 21:27 67.02007 15.10531 33993 ft 361 kts 13°
2026-04-22 21:27 67.04341 15.12946 33125 ft 362 kts 13°
2026-04-22 21:27 67.06654 15.15352 32285 ft 364 kts 13°
2026-04-22 21:28 67.09020 15.17823 31458 ft 370 kts 14°
2026-04-22 21:28 67.11413 15.20331 30587 ft 374 kts 14°
2026-04-22 21:28 67.13843 15.22887 29551 ft 380 kts 15°
2026-04-22 21:28 67.16296 15.25484 28640 ft 381 kts 15°
2026-04-22 21:29 67.18717 15.28068 28138 ft 373 kts 15°
2026-04-22 21:29 67.21099 15.30618 27525 ft 369 kts 15°
2026-04-22 21:29 67.23459 15.33143 26932 ft 364 kts 15°
2026-04-22 21:29 67.25785 15.35626 26344 ft 360 kts 15°
2026-04-22 21:30 67.28089 15.38083 25762 ft 356 kts 15°
2026-04-22 21:30 67.30366 15.40518 25195 ft 352 kts 15°
2026-04-22 21:30 67.32616 15.42926 24634 ft 348 kts 15°
2026-04-22 21:30 67.34847 15.45315 24065 ft 345 kts 15°
2026-04-22 21:31 67.37052 15.47688 23486 ft 342 kts 15°
2026-04-22 21:31 67.39236 15.50041 22930 ft 339 kts 15°
2026-04-22 21:31 67.41405 15.52384 22433 ft 337 kts 15°
2026-04-22 21:31 67.43561 15.54720 21932 ft 335 kts 15°
2026-04-22 21:32 67.45707 15.57057 21469 ft 334 kts 16°
2026-04-22 21:32 67.47847 15.59390 20997 ft 333 kts 16°
2026-04-22 21:32 67.49980 15.61722 20543 ft 332 kts 16°
2026-04-22 21:32 67.52112 15.64055 20104 ft 332 kts 16°
2026-04-22 21:33 67.54239 15.66385 19675 ft 331 kts 17°
2026-04-22 21:33 67.56358 15.68708 19235 ft 330 kts 17°
2026-04-22 21:33 67.58470 15.71023 18807 ft 329 kts 17°
2026-04-22 21:33 67.60581 15.73338 18361 ft 328 kts 17°
2026-04-22 21:34 67.62686 15.75655 17891 ft 327 kts 17°
2026-04-22 21:34 67.64779 15.77963 17438 ft 326 kts 17°
2026-04-22 21:34 67.66861 15.80265 17005 ft 324 kts 17°
2026-04-22 21:34 67.68935 15.82558 16542 ft 322 kts 17°
2026-04-22 21:35 67.70973 15.84817 16096 ft 320 kts 17°
2026-04-22 21:35 67.73017 15.87089 15626 ft 319 kts 17°
2026-04-22 21:35 67.75056 15.89361 15160 ft 317 kts 17°
2026-04-22 21:35 67.77079 15.91619 14691 ft 314 kts 18°
2026-04-22 21:36 67.79091 15.93866 14208 ft 313 kts 17°
2026-04-22 21:36 67.81088 15.96106 13702 ft 311 kts 18°
2026-04-22 21:36 67.83077 15.98345 13204 ft 309 kts 18°
2026-04-22 21:36 67.85051 16.00570 12715 ft 307 kts 18°
2026-04-22 21:37 67.87013 16.02783 12221 ft 305 kts 18°
2026-04-22 21:37 67.88965 16.04988 11731 ft 304 kts 18°
2026-04-22 21:37 67.90910 16.07187 11223 ft 304 kts 18°
2026-04-22 21:37 67.92845 16.09386 10901 ft 297 kts 18°
2026-04-22 21:38 67.94710 16.11516 10761 ft 286 kts 18°
2026-04-22 21:38 67.96501 16.13557 10654 ft 274 kts 18°
2026-04-22 21:38 67.98227 16.15515 10462 ft 266 kts 17°
2026-04-22 21:38 67.99915 16.17425 10238 ft 263 kts 17°
2026-04-22 21:39 68.01595 16.19322 10054 ft 261 kts 17°
2026-04-22 21:39 68.03271 16.21214 9923 ft 261 kts 17°
2026-04-22 21:39 68.04944 16.23111 9789 ft 261 kts 18°
2026-04-22 21:39 68.06626 16.25025 9513 ft 266 kts 18°
2026-04-22 21:40 68.08330 16.26965 9177 ft 264 kts 18°
2026-04-22 21:40 68.10007 16.28889 8758 ft 262 kts 18°
2026-04-22 21:40 68.11688 16.30821 8324 ft 262 kts 18°
2026-04-22 21:40 68.13054 16.32392 8014 ft 260 kts 19°
2026-04-22 21:41 68.14684 16.34274 7880 ft 250 kts 19°
2026-04-22 21:41 68.16240 16.36079 7760 ft 238 kts 19°
2026-04-22 21:41 68.17735 16.37811 7583 ft 230 kts 18°
2026-04-22 21:41 68.19205 16.39524 7144 ft 233 kts 19°
2026-04-22 21:42 68.20715 16.41313 6626 ft 239 kts 20°
2026-04-22 21:42 68.22237 16.43145 6178 ft 240 kts 21°
2026-04-22 21:42 68.23753 16.44985 5736 ft 235 kts 21°
2026-04-22 21:42 68.25194 16.46747 5358 ft 218 kts 21°
2026-04-22 21:43 68.26518 16.48366 5069 ft 200 kts 21°
2026-04-22 21:43 68.27738 16.49847 4801 ft 185 kts 21°
2026-04-22 21:43 68.28882 16.51233 4512 ft 174 kts 21°
2026-04-22 21:43 68.29955 16.52539 4266 ft 164 kts 21°
2026-04-22 21:44 68.30967 16.53770 4039 ft 156 kts 21°
2026-04-22 21:44 68.31935 16.54944 3806 ft 149 kts 21°
2026-04-22 21:44 68.32869 16.56077 3600 ft 148 kts 21°
2026-04-22 21:44 68.33794 16.57199 3405 ft 141 kts 21°
2026-04-22 21:45 68.34676 16.58274 3172 ft 137 kts 20°
2026-04-22 21:45 68.35529 16.59315 2964 ft 136 kts 21°
2026-04-22 21:45 68.36389 16.60366 2753 ft 135 kts 20°
2026-04-22 21:45 68.37258 16.61427 2552 ft 135 kts 21°
2026-04-22 21:46 68.38101 16.62460 2347 ft 134 kts 21°
2026-04-22 21:46 68.38956 16.63504 2140 ft 135 kts 21°
2026-04-22 21:46 68.39822 16.64557 1940 ft 135 kts 21°
2026-04-22 21:46 68.40674 16.65598 1723 ft 134 kts 21°
2026-04-22 21:47 68.41523 16.66638 1513 ft 134 kts 22°
2026-04-22 21:47 68.42367 16.67664 1323 ft 133 kts 20°
2026-04-22 21:47 68.43250 16.68312 1296 ft 132 kts
2026-04-22 21:47 68.44150 16.68423 1250 ft 132 kts 356°
2026-04-22 21:48 68.45085 16.68287 840 ft 138 kts 356°
2026-04-22 21:48 68.46073 16.68164 435 ft 141 kts 358°
2026-04-22 21:48 68.47020 16.68057 252 ft 134 kts 358°
2026-04-22 21:48 68.47942 16.67971 118 ft 131 kts 358°
2026-04-22 21:49 68.48772 16.67873 92 ft 98 kts 358°
2026-04-22 21:49 68.49158 16.67827 95 ft 22 kts 358°
2026-04-22 21:49 68.49319 16.67808 92 ft 25 kts 357°
2026-04-22 21:49 68.49499 16.67789 91 ft 27 kts 357°
2026-04-22 21:50 68.49722 16.67762 90 ft 38 kts 357°
2026-04-22 21:50 68.49996 16.67735 85 ft 40 kts 358°
2026-04-22 21:50 68.50264 16.67702 92 ft 32 kts 358°
2026-04-22 21:50 68.50382 16.67819 91 ft 19 kts 81°
2026-04-22 21:51 68.50324 16.68055 85 ft 19 kts 174°
2026-04-22 21:51 68.50203 16.68067 84 ft 21 kts 179°
2026-04-22 21:51 68.49983 16.68088 70 ft 35 kts 179°
2026-04-22 21:52 68.49491 16.68152 78 ft 35 kts 176°
2026-04-22 21:52 68.49257 16.68178 89 ft 33 kts 176°
2026-04-22 21:52 68.49026 16.68203 89 ft 28 kts 178°
2026-04-22 21:52 68.48914 16.68220 91 ft 9 kts 171°
2026-04-22 21:53 68.48889 16.68327 90 ft 6 kts 92°
2026-04-22 21:53 68.48891 16.68426 92 ft 6 kts 88°
2026-04-22 21:53 68.48892 16.68499 93 ft 2 kts 88°
2026-04-22 21:53 68.48893 16.68566 94 ft 5 kts 88°
2026-04-22 21:54 68.48916 16.68640 93 ft 7 kts 20°
2026-04-22 21:54 68.48971 16.68636 93 ft 7 kts 359°
2026-04-22 21:54 68.48976 16.68636 94 ft 0 kts 359°